Location: Marne
(34.0056°N, 117.9064°W)
Time: 18:40:19
(UTC+00:00)

Cosmos 2360 Rocket - Pass Details

Date: 18 January 2020
Orbit: 835 x 844 km, 71.0° (Epoch: 26 February)

Event Time Altitude Azimuth Distance (km) Brightness Sun altitude
Rises 02:18:34 0° 326° (NW) 3,398 5.6 -14.7°
Reaches altitude 10° 02:21:18 10° 316° (NW) 2,458 5.0 -15.3°
Maximum altitude 02:26:04 29° 258° (WSW) 1,492 4.3 -16.2°
Drops below altitude 10° 02:30:49 10° 199° (SSW) 2,440 5.0 -17.2°
Sets 02:33:31 0° 189° (S) 3,368 5.6 -17.7°
